Location: Degersen
(52.2871°N, 9.5716°E)
Time: 20:59:19
(UTC+00:00)

Cosmos 1703 Rocket - Pass Details

Date: 20 January 2026
Orbit: 599 x 625 km, 82.5° (Epoch: 15 February)

Event Time Altitude Azimuth Distance (km) Brightness Sun altitude
Rises 06:03:44 0° 346° (NNW) 2,862 6.7 -11.2°
Reaches altitude 10° 06:05:58 10° 343° (NNW) 1,956 5.8 -10.9°
Maximum altitude 06:10:13 59° 264° (W) 699 3.5 -10.3°
Drops below altitude 10° 06:14:27 10° 185° (S) 1,951 6.3 -9.7°
Sets 06:16:41 0° 182° (S) 2,854 7.2 -9.3°
